Regional Weather Roundup
Issued by NWS

Home | Current Version | Previous Version | Graphics & Text | Print | Product List | Glossary On
Versions: 1 2 3 4 5 6 7 8 9 10 11 12 13 14 15 16 17 18 19 20 21 22 23 24 25 26 27 28 29 30 31 32 33 34 35 36 37 38 39 40 41 42 43 44 45 46 47 48 49 50
000
ASUS43 KLMK 310602
RWRKY
KENTUCKY REGIONAL WEATHER ROUNDUP
NATIONAL WEATHER SERVICE LOUISVILLE KY
200 AM EDT WED AUG 31 2016

NOTE "FAIR" INDICATES FEW OR NO CLOUDS BELOW 12,000 FEET
WITH NO SIGNIFICANT WEATHER AND/OR OBSTRUCTIONS TO VISIBILITY.

KYZ001>023-026-027-061>063-070>075-310700-
WESTERN AND SOUTH CENTRAL KENTUCKY

CITY           SKY/WX    TMP DP  RH WIND       PRES   REMARKS
PADUCAH        CLEAR     76  71  85 N3        30.04R
HENDERSON      CLEAR     75  70  83 N3        30.03S
OWENSBORO      CLEAR     79  74  84 N5        30.04S
HOPKINSVILLE   CLEAR     77  73  87 N6        30.03S
BOWLING GREEN  CLEAR     76  73  91 CALM      30.04S
GLASGOW        CLEAR     72  72 100 CALM      30.04S
$$

KYZ024-025-028>034-038-045-046-053-310700-
NORTH CENTRAL KENTUCKY

CITY           SKY/WX    TMP DP  RH WIND       PRES   REMARKS
LOUISVILLE/SDF MOCLDY    79  70  74 N9        30.04S
LOUISVILLE/LOU CLEAR     78  70  76 NW7       30.05S
FORT KNOX      CLEAR     74  71  90 CALM      30.03F
$$

KYZ035>037-039>044-047>052-055>060-089>105-310700-
NORTHEAST KENTUCKY

CITY           SKY/WX    TMP DP  RH WIND       PRES   REMARKS
LEXINGTON      CLEAR     71  67  87 CALM      30.06F
COVINGTON      MOCLDY    72  68  87 N3        30.06F
FRANKFORT      CLEAR     73  68  84 CALM      30.04F
$$

KYZ054-064>069-076>088-106>120-310700-
SOUTHEAST KENTUCKY

CITY           SKY/WX    TMP DP  RH WIND       PRES   REMARKS
JACKSON        CLEAR     73  69  87 CALM      30.08S
LONDON         CLEAR     72  68  87 CALM      30.07S
SOMERSET       CLEAR     70  70 100 CALM      30.07S FOG
MIDDLESBORO    CLEAR     68  68 100 CALM      30.09S
MONTICELLO     CLEAR    N/A N/A N/A NE9       30.07F
$$




USA.gov is the U.S. government's official web portal to all federal, state and local government web resources and services.